STARLINK-36311, 68525

Orbit data source: Space-Track

STARLINK-36311, 68525 is a payload satellite owned by SpaceX/Seattle (US) in LEO that was launched on Mon, 30 Mar 2026 UTC via an FALCON 9 launch vehicle from the Air Force Eastern Test Range (AFETR). Payload-class satellites include a variety of spacecraft equipped with specific instruments for various scientific and technological missions. These include communications satellites like Starlink; space stations such as the ISS; scientific satellites like the Hubble; Earth observation satellites from companies like Planet Labs, Umbra, and HawkEye 360; GPS; miniature CubeSats for education and research; and military/defense satellites.

Loading next visibility...
Identifier
68525, 2026-068T
Orbit
LEO
Country
Flag of USUS
Related business
Manufacturer
SpaceX/Seattle
Mission
Operational spacecraft
Bus & Motor
STARLINK V2MO, Unknown motor
Mass
575 kg wet, ~530 kg dry
Launch date (UTC)
2026-03-30 (3 months ago)
Launch vehicle
FALCON 9
Launch site
Air Force Eastern Test Range (AFETR)
Object type
Payload
Rocket body
Debris
Shape & HBR
Unknown shape, 2.5 m
Radar Cross Section
Large (>1 m²)

Expand to show TLE details & history
Last TLE update: 1 day ago

TLE from 1 day ago
0 STARLINK-36311
1 68525U 26068T   26170.85339900  .00021971  00000-0  65936-3 0  9993
2 68525  53.1589  12.8176 0001091  93.5009 266.6118 15.34405923 12617
Epoch: 2026-06-19T20:28Z
TLE epoch observation values (Epoch: 2026-06-19T20:28:53.673Z)
Latitude
-0.00006°
Longitude
157.5175°
Altitude
463.631 km
Speed
7.636 km/s
True Right ascension
00h 51m 16s
True Declination
0° 00' 00"
Sunlit
Object was in daylight at epoch
Visualization orbit readout
Latitude
Unknown
Longitude
Unknown
Altitude
Unknown
Speed
Unknown
Apparent Right ascension
Unknown
Apparent Declination
Unknown
Sunlit
N/A
Visualization observer readout
Local Sidereal Time
07:20:42
Azimuth
Unknown
Elevation
Unknown
Doppler factor
Unknown
Orbital elements
Apogee altitude
463.689 km
Perigee altitude
462.196 km
Semi-major axis
6,841.08 km
Eccentricity
0.00011
Inclination
53.1589°
RAAN
12.8176°
Arg. of periapsis
93.5009°
True anomaly
266.59932°
Mean anomaly
266.6118°
Eccentric anomaly
266.60556°
Mean motion
3.8358 °/min
Orbital period
93.85 mins
BSTAR
0.00065936
Loading maneuver chart data...
Computing Atmospheric mass density...
Loading historical data...
Loading historical data...
Loading historical data...
Loading historical data...
Loading historical data...
Loading historical data...
Loading historical data...

Documentation

Showing up to 5 results
|